Location: Bathurst
(33.4193°S, 149.5775°E)
Time: 09:48:21
(UTC+10:00)

Vanguard 1 Rocket - Pass Details

Date: 16 June 2021
Orbit: 650 x 4226 km, 34.3° (Epoch: 02 August)

Event Time Altitude Azimuth Distance (km) Brightness Sun altitude
Rises 16:17:23 0° 260° (W) 3,830 11.4 6.9°
Reaches altitude 10° 16:20:57 10° 273° (W) 2,498 10.9 6.3°
Maximum altitude 16:25:10 23° 325° (NW) 1,486 9.8 5.6°
Drops below altitude 10° 16:28:41 10° 19° (NNE) 2,049 9.4 5.0°
Sets 16:31:16 0° 34° (NE) 2,970 10.0 4.5°
